Pittsburg, KS

3:14 AM CDT on July 24, 2017 (GMT -0500)
Atkinson Municipal

Weather History for KPTS - October, 2012

Change the Weather History Date:

Sunday, October 7, 2012

  Actual Average (KJLN) Record (KJLN)
Temperature  
Mean Temperature 42 °F -  
Max Temperature 54 °F 72 °F 93 °F (1963)
Min Temperature 31 °F 49 °F 26 °F (1952)
Degree Days  
Heating Degree Days 22    
Moisture  
Dew Point 32 °F    
Average Humidity 66    
Maximum Humidity 100    
Minimum Humidity 36    
Precipitation  
Precipitation 0.00 in - - ()
Sea Level Pressure  
Sea Level Pressure 30.26 in    
Wind  
Wind Speed 1 mph (NW)    
Max Wind Speed 7 mph    
Max Gust Speed -    
Visibility 10 miles    
Events      
Averages and records for this station are not official NWS values.
T = Trace of Precipitation, MM = Missing Value Source: NWS Daily Summary

Daily Weather History Graph

Daily Weather History Graph

Search for Another Location

Airport or City:

Trip Planner

Search our weather history database for the weather conditions in past years. The results will help you decide how hot, cold, wet, or windy it might be!

Date:

Astronomy

Oct. 07, 2012 Rise Set
Actual Time 7:20 AM CDT 6:52 PM CDT
Civil Twilight 6:54 AM CDT 7:18 PM CDT
Nautical Twilight 6:23 AM CDT 7:48 PM CDT
Astronomical Twilight 5:53 AM CDT 8:18 PM CDT
Moon No Moon Rise 1:53 PM CDT (10/7)
Length of Visible Light 12h 24m
Length of Day
11h 32m
Waning Gibbous, 56% of the Moon is Illuminated
Oct 7
Waning Gibbous
Oct 8
Last Quarter
Oct 15
New
Oct 21
First Quarter
Oct 29
Full

Hourly Weather History & Observations

Time (CDT) Temp. Windchill Dew Point Humidity Pressure Visibility Wind Dir Wind Speed Gust Speed Precip Events Conditions
12:15 AM 38.8 °F - 33.3 °F 80% 30.30 in 10.0 mi Calm Calm - N/A   Mostly Cloudy
12:35 AM 38.8 °F - 34.7 °F 85% 30.30 in 10.0 mi Calm Calm - N/A   Mostly Cloudy
12:55 AM 38.8 °F - 34.2 °F 83% 30.31 in 10.0 mi Calm Calm - N/A   Scattered Clouds
1:15 AM 38.8 °F - 34.2 °F 83% 30.31 in 10.0 mi Calm Calm - N/A   Scattered Clouds
1:35 AM 38.8 °F - 33.8 °F 82% 30.31 in 10.0 mi Calm Calm - N/A   Scattered Clouds
2:15 AM 38.8 °F 36.5 °F 34.3 °F 84% 30.32 in 10.0 mi NNW 3.5 mph - N/A   Scattered Clouds
2:35 AM 38.8 °F - 34.5 °F 84% 30.32 in 10.0 mi Calm Calm - N/A   Scattered Clouds
2:55 AM 37.9 °F - 35.2 °F 90% 30.32 in 10.0 mi Calm Calm - N/A   Clear
3:15 AM 36.5 °F - 34.5 °F 93% 30.31 in 10.0 mi Calm Calm - N/A   Scattered Clouds
3:35 AM 36.5 °F - 35.2 °F 95% 30.30 in 10.0 mi Calm Calm - N/A   Scattered Clouds
3:55 AM 36.5 °F - 36.3 °F 99% 30.30 in 10.0 mi Calm Calm - N/A   Scattered Clouds
4:15 AM 36.5 °F - 36.5 °F 100% 30.30 in 10.0 mi Calm Calm - N/A   Mostly Cloudy
4:35 AM 36.5 °F - 36.5 °F 100% 30.29 in 10.0 mi Calm Calm - N/A   Scattered Clouds
4:55 AM 35.4 °F - 35.4 °F 100% 30.29 in 10.0 mi Calm Calm - N/A   Clear
5:15 AM 33.8 °F - 34.0 °F 100% 30.29 in 10.0 mi Calm Calm - N/A   Clear
5:35 AM 33.8 °F - 34.0 °F 100% 30.29 in 10.0 mi Calm Calm - N/A   Clear
5:55 AM 33.8 °F - 34.0 °F 100% 30.30 in 10.0 mi Calm Calm - N/A   Clear
6:15 AM 32.5 °F - - N/A% 30.30 in 10.0 mi Calm Calm - N/A   Clear
6:55 AM 31.3 °F - - N/A% 30.30 in 10.0 mi Calm Calm - N/A   Clear
7:15 AM 31.6 °F - - N/A% 30.30 in 10.0 mi Calm Calm - N/A   Clear
7:35 AM 31.6 °F - - N/A% 30.31 in 10.0 mi Calm Calm - N/A   Clear
7:55 AM 31.6 °F - - N/A% 30.31 in 10.0 mi Calm Calm - N/A   Clear
8:15 AM 33.1 °F 30.0 °F - N/A% 30.31 in 10.0 mi NNW 3.5 mph - N/A   Clear
8:55 AM 38.1 °F - 35.8 °F 91% 30.31 in 10.0 mi Calm Calm - N/A   Clear
9:15 AM 40.1 °F - 33.8 °F 78% 30.31 in 10.0 mi Calm Calm - N/A   Clear
9:35 AM 42.3 °F 40.5 °F 32.4 °F 68% 30.31 in 10.0 mi NNE 3.5 mph - N/A   Clear
9:55 AM 44.4 °F 42.0 °F 31.5 °F 60% 30.31 in 10.0 mi ENE 4.6 mph - N/A   Clear
10:15 AM 46.2 °F 45.0 °F 30.9 °F 55% 30.31 in 10.0 mi NE 3.5 mph - N/A   Clear
10:35 AM 48.4 °F - 30.0 °F 49% 30.32 in 10.0 mi North 5.8 mph - N/A   Clear
10:55 AM 49.1 °F - 30.2 °F 48% 30.33 in 10.0 mi NNE 3.5 mph - N/A   Clear
11:15 AM 49.1 °F - 29.8 °F 47% 30.33 in 10.0 mi NNE 3.5 mph - N/A   Clear
11:35 AM 49.1 °F - 29.3 °F 46% 30.32 in 10.0 mi NW 4.6 mph - N/A   Clear
12:15 PM 49.3 °F - 28.4 °F 45% 30.30 in 10.0 mi NNW 6.9 mph - N/A   Clear
12:35 PM 49.8 °F - 28.6 °F 44% 30.29 in 10.0 mi NE 5.8 mph - N/A   Clear
12:55 PM 51.1 °F - 29.7 °F 44% 30.29 in 10.0 mi North 6.9 mph - N/A   Clear
1:15 PM 51.3 °F - 29.7 °F 44% 30.28 in 10.0 mi Calm Calm - N/A   Clear
1:35 PM 51.4 °F - 28.6 °F 41% 30.27 in 10.0 mi Calm Calm - N/A   Clear
1:55 PM 52.5 °F - 28.9 °F 40% 30.26 in 10.0 mi North 3.5 mph - N/A   Clear
2:15 PM 52.7 °F - 29.1 °F 40% 30.25 in 10.0 mi NW 6.9 mph - N/A   Clear
2:35 PM 53.6 °F - 28.8 °F 39% 30.23 in 10.0 mi Calm Calm - N/A   Clear
2:55 PM 54.0 °F - 28.9 °F 38% - 10.0 mi Calm Calm - N/A   Clear
3:15 PM 54.0 °F - 28.6 °F 38% 30.22 in 10.0 mi North 3.5 mph - N/A   Clear
3:35 PM 54.0 °F - 28.2 °F 37% 30.21 in 10.0 mi Calm Calm - N/A   Clear
3:55 PM 54.0 °F - 28.2 °F 37% 30.21 in 10.0 mi NW 3.5 mph - N/A   Clear
4:15 PM 54.0 °F - 27.7 °F 36% 30.20 in 10.0 mi Calm Calm - N/A   Clear
4:35 PM 54.0 °F - 27.5 °F 36% 30.19 in 10.0 mi West 3.5 mph - N/A   Clear
4:55 PM 54.0 °F - 27.1 °F 36% 30.19 in 10.0 mi ESE 3.5 mph - N/A   Clear
5:15 PM 54.0 °F - 27.1 °F 36% 30.19 in 10.0 mi Calm Calm - N/A   Clear
5:35 PM 54.0 °F - 27.3 °F 36% 30.18 in 10.0 mi SW 4.6 mph - N/A   Clear
5:55 PM 54.0 °F - 28.0 °F 37% 30.18 in 10.0 mi SW 3.5 mph - N/A   Clear
6:15 PM 54.0 °F - 29.8 °F 40% 30.18 in 10.0 mi Calm Calm - N/A   Clear
6:35 PM 52.0 °F - 30.0 °F 43% 30.18 in 10.0 mi Calm Calm - N/A   Clear
6:55 PM 49.8 °F - 28.9 °F 45% 30.18 in 10.0 mi Calm Calm - N/A   Clear
7:15 PM 46.4 °F - 32.4 °F 58% 30.19 in 10.0 mi Calm Calm - N/A   Clear
7:35 PM 43.3 °F 40.7 °F 32.2 °F 65% 30.19 in 10.0 mi SSW 4.6 mph - N/A   Clear
7:55 PM 40.8 °F 38.8 °F 32.0 °F 71% 30.19 in 10.0 mi SSW 3.5 mph - N/A   Clear
8:15 PM 41.2 °F 39.2 °F 31.8 °F 69% 30.19 in 10.0 mi SSW 3.5 mph - N/A   Clear
8:35 PM 39.6 °F - 32.2 °F 75% 30.20 in 10.0 mi Calm Calm - N/A   Clear
8:55 PM 38.8 °F - 32.9 °F 79% 30.20 in 10.0 mi Calm Calm - N/A   Clear
9:15 PM 38.8 °F - 33.8 °F 82% 30.20 in 10.0 mi Calm Calm - N/A   Clear
9:35 PM 38.8 °F - 34.3 °F 84% 30.21 in 10.0 mi Calm Calm - N/A   Clear
9:55 PM 38.8 °F 36.5 °F 33.6 °F 82% 30.21 in 10.0 mi SSW 3.5 mph - N/A   Clear
10:15 PM 37.0 °F 34.5 °F 32.4 °F 83% 30.21 in 10.0 mi SW 3.5 mph - N/A   Clear
10:35 PM 36.7 °F - 32.9 °F 86% 30.21 in 10.0 mi Calm Calm - N/A   Clear
10:55 PM 37.2 °F 33.6 °F 31.6 °F 80% 30.20 in 10.0 mi SW 4.6 mph - N/A   Clear
11:15 PM 38.1 °F - 31.8 °F 78% 30.20 in 10.0 mi Calm Calm - N/A   Clear
11:35 PM 36.9 °F 32.2 °F 32.4 °F 84% 30.20 in 10.0 mi WSW 5.8 mph - N/A   Clear
11:55 PM 37.2 °F 33.6 °F 30.9 °F 78% 30.20 in 10.0 mi SW 4.6 mph - N/A   Clear